• In Hungary
  • List of Countries
  • For 7 days
  • Water Temperature
  • Satellite Maps
  • Weather Map
  • News
  • Weather Widgets
  • user-avatar
    Login

    Hourly Weather Turka

    Today, 21 October, Saturday

    Time Temperature Precipitation Wind Pressure Humidity
    00:00 -4°C° 0 mm 3 mps 721 mmHg 60%
    01:00 -4°C° 0 mm 3 mps 721 mmHg 59%
    02:00 -4°C° 0 mm 3 mps 721 mmHg 59%
    03:00 -4°C° 0 mm 3 mps 721 mmHg 59%
    04:00 -4°C° 0 mm 3 mps 721 mmHg 59%
    05:00 -3°C° 0 mm 2 mps 721 mmHg 59%
    06:00 -3°C° 0 mm 2 mps 721 mmHg 59%
    07:00 -2°C° 0 mm 2 mps 722 mmHg 58%
    08:00 +1°C° 0 mm 2 mps 722 mmHg 53%
    09:00 +4°C° 0 mm 1 mps 722 mmHg 49%
    10:00 +7°C° 0 mm 1 mps 722 mmHg 44%
    11:00 +7°C° 0 mm 1 mps 722 mmHg 47%
    12:00 +7°C° 0 mm 1 mps 722 mmHg 50%
    13:00 +7°C° 0 mm 1 mps 722 mmHg 53%
    14:00 +6°C° 0 mm 1 mps 722 mmHg 59%
    15:00 +5°C° 0 mm 1 mps 722 mmHg 66%
    16:00 +4°C° 0 mm 1 mps 722 mmHg 72%
    17:00 +2°C° 0 mm 2 mps 722 mmHg 76%
    18:00 +1°C° 0 mm 2 mps 723 mmHg 80%
    19:00 -1°C° 0 mm 2 mps 723 mmHg 84%
    20:00 -1°C° 0 mm 2 mps 723 mmHg 85%
    21:00 -1°C° 0 mm 2 mps 723 mmHg 85%
    22:00 -1°C° 0 mm 2 mps 723 mmHg 86%
    23:00 -1°C° 0 mm 2 mps 723 mmHg 86%

    Tomorrow, 22 October, Sunday

    Time Temperature Precipitation Wind Pressure Humidity
    00:00 -1°C° 0 mm 2 mps 723 mmHg 86%
    01:00 -2°C° 0 mm 2 mps 723 mmHg 87%
    02:00 -2°C° 0 mm 2 mps 723 mmHg 87%
    03:00 -2°C° 0 mm 2 mps 723 mmHg 88%
    04:00 -2°C° 0 mm 2 mps 723 mmHg 88%
    05:00 -1°C° 0 mm 2 mps 723 mmHg 88%
    06:00 -1°C° 0 mm 2 mps 723 mmHg 88%
    07:00 -1°C° 0 mm 2 mps 723 mmHg 87%
    08:00 +2°C° 0 mm 2 mps 722 mmHg 81%
    09:00 +4°C° 0 mm 2 mps 722 mmHg 74%
    10:00 +7°C° 0 mm 2 mps 722 mmHg 67%
    11:00 +7°C° 0 mm 2 mps 721 mmHg 65%
    12:00 +9°C° 0 mm 1 mps 721 mmHg 64%
    13:00 +10°C° 0 mm 1 mps 720 mmHg 62%
    14:00 +9°C° 0 mm 1 mps 720 mmHg 66%
    15:00 +8°C° 0 mm 1 mps 720 mmHg 71%
    16:00 +7°C° 0 mm 1 mps 719 mmHg 76%
    17:00 +5°C° 0 mm 2 mps 719 mmHg 78%
    18:00 +4°C° 0 mm 2 mps 719 mmHg 81%
    19:00 +3°C° 0 mm 2 mps 719 mmHg 83%
    20:00 +3°C° 0 mm 2 mps 719 mmHg 83%
    21:00 +3°C° 0 mm 2 mps 719 mmHg 83%
    22:00 +3°C° 0 mm 2 mps 718 mmHg 83%
    23:00 +3°C° 0 mm 2 mps 718 mmHg 84%

    Day after tomorrow, 23 October, Monday

    Time Temperature Precipitation Wind Pressure Humidity
    00:00 +2°C° 0 mm 2 mps 718 mmHg 84%
    01:00 +2°C° 0 mm 2 mps 717 mmHg 84%
    02:00 +2°C° 0 mm 2 mps 717 mmHg 84%
    03:00 +2°C° 0 mm 2 mps 717 mmHg 84%
    04:00 +3°C° 0 mm 1 mps 716 mmHg 84%
    05:00 +3°C° 0 mm 1 mps 716 mmHg 83%
    06:00 +2°C° 0 mm 1 mps 716 mmHg 82%
    07:00 +2°C° 0 mm 1 mps 716 mmHg 82%
    08:00 +4°C° 0 mm 1 mps 716 mmHg 74%
    09:00 +6°C° 0 mm 2 mps 716 mmHg 67%
    10:00 +8°C° 0 mm 2 mps 716 mmHg 60%
    11:00 +8°C° 0 mm 2 mps 716 mmHg 59%
    12:00 +9°C° 0 mm 2 mps 716 mmHg 57%
    13:00 +10°C° 0 mm 3 mps 716 mmHg 55%
    14:00 +9°C° 0 mm 3 mps 716 mmHg 60%
    15:00 +8°C° 0 mm 3 mps 717 mmHg 65%
    16:00 +5°C° 0 mm 3 mps 717 mmHg 71%
    17:00 +5°C° 0 mm 3 mps 718 mmHg 74%
    18:00 +5°C° 0 mm 2 mps 719 mmHg 77%
    19:00 +4°C° 0 mm 2 mps 719 mmHg 80%
    20:00 +3°C° 0 mm 3 mps 720 mmHg 84%
    21:00 +2°C° 0 mm 3 mps 721 mmHg 88%
    22:00 +2°C° 0 mm 3 mps 721 mmHg 92%
    23:00 +2°C° 0 mm 3 mps 722 mmHg 89%

    24 October, Tuesday

    Time Temperature Precipitation Wind Pressure Humidity
    00:00 +1°C° 0 mm 3 mps 722 mmHg 86%
    01:00 +1°C° 0 mm 3 mps 722 mmHg 84%
    02:00 +1°C° 0 mm 3 mps 723 mmHg 83%
    03:00 +1°C° 0 mm 2 mps 723 mmHg 82%
    04:00 -1°C° 0 mm 2 mps 723 mmHg 81%
    05:00 -1°C° 0 mm 2 mps 723 mmHg 80%
    06:00 -1°C° 0 mm 2 mps 724 mmHg 79%
    07:00 -1°C° 0 mm 2 mps 724 mmHg 77%
    08:00 +1°C° 0 mm 2 mps 724 mmHg 70%
    09:00 +2°C° 0 mm 2 mps 724 mmHg 64%
    10:00 +4°C° 0 mm 2 mps 724 mmHg 57%
    11:00 +4°C° 0 mm 2 mps 724 mmHg 56%
    12:00 +3°C° 0 mm 3 mps 724 mmHg 55%
    13:00 +3°C° 0 mm 3 mps 724 mmHg 54%
    14:00 +4°C° 0 mm 2 mps 724 mmHg 58%
    15:00 +3°C° 0 mm 2 mps 724 mmHg 63%
    16:00 +2°C° 0 mm 2 mps 724 mmHg 67%
    17:00 +1°C° 0 mm 2 mps 724 mmHg 71%
    18:00 -1°C° 0 mm 2 mps 724 mmHg 75%
    19:00 -2°C° 0 mm 2 mps 724 mmHg 79%
    20:00 -2°C° 0 mm 2 mps 724 mmHg 79%
    21:00 0°C° 0 mm 1 mps 724 mmHg 80%
    22:00 0°C° 0 mm 1 mps 724 mmHg 80%
    23:00 0°C° 0 mm 1 mps 724 mmHg 80%

    25 October, Wednesday

    Time Temperature Precipitation Wind Pressure Humidity
    00:00 0°C° 0 mm 1 mps 724 mmHg 80%
    01:00 0°C° 0 mm 1 mps 724 mmHg 80%
    02:00 0°C° 0 mm 1 mps 724 mmHg 80%
    03:00 0°C° 0 mm 1 mps 724 mmHg 79%
    04:00 0°C° 0 mm 1 mps 723 mmHg 79%
    05:00 0°C° 0 mm 1 mps 723 mmHg 77%
    06:00 -2°C° 0 mm 2 mps 723 mmHg 76%
    07:00 -2°C° 0 mm 2 mps 723 mmHg 75%
    08:00 +1°C° 0 mm 2 mps 723 mmHg 68%
    09:00 +4°C° 0 mm 2 mps 723 mmHg 60%
    10:00 +6°C° 0 mm 2 mps 723 mmHg 53%
    11:00 +7°C° 0 mm 2 mps 722 mmHg 53%
    12:00 +7°C° 0 mm 2 mps 722 mmHg 52%
    13:00 +8°C° 0 mm 2 mps 721 mmHg 52%
    14:00 +7°C° 0 mm 2 mps 721 mmHg 58%
    15:00 +5°C° 0 mm 2 mps 721 mmHg 64%
    16:00 +4°C° 0 mm 2 mps 721 mmHg 71%
    17:00 +3°C° 0 mm 2 mps 721 mmHg 74%
    18:00 +2°C° 0 mm 2 mps 721 mmHg 77%
    19:00 +1°C° 0 mm 2 mps 721 mmHg 80%
    20:00 +2°C° 0 mm 1 mps 721 mmHg 81%
    21:00 +2°C° 0 mm 1 mps 721 mmHg 81%
    22:00 +2°C° 0 mm 1 mps 721 mmHg 82%
    23:00 +2°C° 0 mm 1 mps 720 mmHg 82%

    26 October, Thursday

    Time Temperature Precipitation Wind Pressure Humidity
    00:00 +2°C° 0 mm 1 mps 720 mmHg 83%
    01:00 +2°C° 0 mm 1 mps 720 mmHg 83%
    02:00 +2°C° 0 mm 1 mps 720 mmHg 83%
    03:00 +2°C° 0 mm 1 mps 720 mmHg 84%
    04:00 +2°C° 0 mm 1 mps 719 mmHg 84%
    05:00 +2°C° 0 mm 1 mps 719 mmHg 84%
    06:00 +2°C° 0 mm 1 mps 719 mmHg 84%
    07:00 +2°C° 0 mm 1 mps 719 mmHg 84%
    08:00 +4°C° 0 mm 1 mps 718 mmHg 77%
    09:00 +6°C° 0 mm 1 mps 718 mmHg 70%
    10:00 +8°C° 0 mm 1 mps 718 mmHg 63%
    11:00 +9°C° 0 mm 1 mps 717 mmHg 61%
    12:00 +10°C° 0 mm 1 mps 716 mmHg 59%
    13:00 +9°C° 0 mm 2 mps 716 mmHg 57%
    14:00 +8°C° 0 mm 2 mps 716 mmHg 64%
    15:00 +7°C° 0 mm 1 mps 716 mmHg 70%
    16:00 +6°C° 0 mm 1 mps 716 mmHg 77%
    17:00 +5°C° 0 mm 1 mps 716 mmHg 80%
    18:00 +3°C° 0 mm 2 mps 716 mmHg 83%
    19:00 +2°C° 0 mm 2 mps 716 mmHg 86%
    20:00 +2°C° 0 mm 2 mps 717 mmHg 88%
    21:00 +2°C° 0 mm 2 mps 717 mmHg 90%
    22:00 +2°C° 0 mm 2 mps 717 mmHg 92%
    23:00 +1°C° 0 mm 3 mps 717 mmHg 91%
    Show more